�������l�o���
Date,Time,MP-1(��Sv/h),MP-2(��Sv/h),MP-3(��Sv/h),MP-4(��Sv/h),MP-5(��Sv/h),MP-6(��Sv/h),MP-7(��Sv/h),MP-8(��Sv/h),����,����(m/s),���J
2019/11/27,00:00,0.700,1.010,0.674,1.249,0.880,0.404,0.705,0.673,�쐼,2.1,��
2019/11/27,00:10,0.699,1.010,0.672,1.248,0.880,0.404,0.707,0.672,�쐼,2.6,��
2019/11/27,00:20,0.700,1.008,0.673,1.249,0.880,0.405,0.708,0.672,���쐼,2.5,��
2019/11/27,00:30,0.701,1.008,0.675,1.247,0.878,0.405,0.707,0.672,�쐼,3.0,��
2019/11/27,00:40,0.699,1.010,0.675,1.250,0.881,0.406,0.707,0.672,�쐼,2.6,��
2019/11/27,00:50,0.697,1.009,0.674,1.247,0.880,0.404,0.706,0.672,�쐼,2.7,��
2019/11/27,01:00,0.701,1.010,0.675,1.248,0.881,0.405,0.706,0.672,�쐼,3.2,��
2019/11/27,01:10,0.700,1.010,0.675,1.247,0.880,0.405,0.706,0.673,�쐼,3.9,��
2019/11/27,01:20,0.700,1.011,0.675,1.250,0.880,0.405,0.705,0.673,�쐼,3.9,��
2019/11/27,01:30,0.701,1.011,0.674,1.249,0.882,0.405,0.708,0.673,�쐼,4.5,��
2019/11/27,01:40,0.700,1.010,0.672,1.248,0.879,0.404,0.707,0.673,���쐼,4.1,��
2019/11/27,01:50,0.700,1.009,0.674,1.248,0.879,0.405,0.706,0.674,���쐼,4.5,��
2019/11/27,02:00,0.700,1.009,0.673,1.248,0.879,0.405,0.707,0.672,�쐼,5.0,��
2019/11/27,02:10,0.700,1.008,0.674,1.247,0.880,0.405,0.707,0.671,�쐼,4.2,��
2019/11/27,02:20,0.700,1.007,0.675,1.248,0.880,0.406,0.707,0.671,���쐼,3.8,��
2019/11/27,02:30,0.700,1.008,0.674,1.248,0.880,0.405,0.706,0.672,���쐼,3.3,��
2019/11/27,02:40,0.700,1.010,0.674,1.248,0.881,0.405,0.706,0.672,���쐼,2.9,��
2019/11/27,02:50,0.702,1.010,0.672,1.249,0.880,0.405,0.707,0.672,�쐼,2.7,��
2019/11/27,03:00,0.701,1.008,0.674,1.248,0.881,0.403,0.705,0.672,�쐼,2.6,��
2019/11/27,03:10,0.700,1.007,0.673,1.250,0.880,0.405,0.707,0.672,�쐼,2.5,��
2019/11/27,03:20,0.701,1.008,0.674,1.248,0.879,0.405,0.706,0.672,�쐼,2.0,��
2019/11/27,03:30,0.699,1.010,0.674,1.250,0.880,0.405,0.707,0.672,��쐼,1.5,��
2019/11/27,03:40,0.701,1.012,0.673,1.249,0.880,0.404,0.709,0.673,��,1.1,��
2019/11/27,03:50,0.702,1.009,0.672,1.249,0.880,0.404,0.707,0.673,��,1.5,��
2019/11/27,04:00,0.701,1.008,0.676,1.248,0.880,0.405,0.706,0.672,�쓌,1.8,��
2019/11/27,04:10,0.700,1.009,0.674,1.249,0.880,0.407,0.706,0.673,�쓌,1.3,��
2019/11/27,04:20,0.702,1.010,0.675,1.247,0.881,0.406,0.708,0.674,�쓌,1.3,��
2019/11/27,04:30,0.702,1.008,0.675,1.250,0.879,0.405,0.706,0.673,�쓌,1.4,��
2019/11/27,04:40,0.700,1.008,0.674,1.246,0.879,0.406,0.706,0.672,�쓌,1.0,��
2019/11/27,04:50,0.701,1.009,0.674,1.249,0.880,0.405,0.705,0.672,��쓌,1.1,��
2019/11/27,05:00,0.701,1.009,0.674,1.249,0.878,0.406,0.706,0.672,��쓌,1.7,��
2019/11/27,05:10,0.700,1.009,0.675,1.249,0.880,0.406,0.707,0.674,��쓌,1.8,��
2019/11/27,05:20,0.702,1.008,0.675,1.249,0.880,0.406,0.707,0.674,��,1.9,��
2019/11/27,05:30,0.700,1.008,0.674,1.250,0.881,0.405,0.707,0.674,��쐼,1.7,��
2019/11/27,05:40,0.702,1.008,0.676,1.250,0.882,0.406,0.707,0.674,��쐼,2.0,��
2019/11/27,05:50,0.702,1.010,0.674,1.250,0.880,0.405,0.707,0.673,��쐼,1.6,��
2019/11/27,06:00,0.701,1.009,0.675,1.249,0.880,0.405,0.709,0.674,��쐼,1.8,��
2019/11/27,06:10,0.701,1.009,0.675,1.249,0.879,0.405,0.707,0.675,��,1.7,��
2019/11/27,06:20,0.704,1.009,0.675,1.249,0.882,0.405,0.707,0.672,��,1.3,��
2019/11/27,06:30,0.703,1.008,0.676,1.247,0.881,0.406,0.708,0.673,��,1.9,��
2019/11/27,06:40,0.702,1.010,0.676,1.246,0.880,0.406,0.709,0.673,��쐼,2.1,�L
2019/11/27,06:50,0.702,1.010,0.675,1.249,0.882,0.407,0.708,0.675,�쐼,1.6,��
2019/11/27,07:00,0.701,1.007,0.675,1.250,0.880,0.406,0.708,0.674,��,2.0,��
2019/11/27,07:10,0.703,1.010,0.674,1.248,0.880,0.405,0.709,0.672,��,1.6,��
2019/11/27,07:20,0.701,1.009,0.673,1.250,0.880,0.407,0.708,0.673,��쐼,1.8,��
2019/11/27,07:30,0.699,1.012,0.674,1.247,0.879,0.406,0.709,0.674,��쐼,1.4,��
2019/11/27,07:40,0.702,1.009,0.676,1.248,0.881,0.405,0.708,0.674,�쐼,1.8,��
2019/11/27,07:50,0.702,1.009,0.673,1.250,0.880,0.408,0.709,0.675,�쐼,1.6,�L
2019/11/27,08:00,0.703,1.010,0.676,1.250,0.881,0.407,0.708,0.674,��쐼,1.3,�L
2019/11/27,08:10,0.704,1.009,0.675,1.247,0.879,0.407,0.707,0.676,��쐼,1.9,�L
2019/11/27,08:20,0.704,1.009,0.677,1.249,0.880,0.407,0.707,0.674,��쐼,1.8,�L
2019/11/27,08:30,0.704,1.009,0.677,1.251,0.881,0.406,0.709,0.673,��,1.1,�L
2019/11/27,08:40,0.702,1.010,0.677,1.247,0.879,0.405,0.708,0.674,��쐼,1.2,��
2019/11/27,08:50,0.705,1.009,0.674,1.251,0.881,0.407,0.708,0.675,�쐼,0.9,��
2019/11/27,09:00,0.703,1.009,0.676,1.250,0.882,0.406,0.709,0.673,��쐼,0.9,��
2019/11/27,09:10,0.703,1.009,0.677,1.249,0.880,0.407,0.707,0.674,�쐼,0.6,�L
2019/11/27,09:20,0.703,1.009,0.675,1.250,0.881,0.407,0.709,0.675,-,CALM,�L
2019/11/27,09:30,0.704,1.009,0.676,1.249,0.881,0.407,0.709,0.673,-,CALM,�L
2019/11/27,09:40,0.704,1.010,0.677,1.251,0.884,0.406,0.708,0.675,�k,0.8,��
2019/11/27,09:50,0.705,1.009,0.677,1.249,0.880,0.407,0.709,0.674,�k�k��,1.3,��
2019/11/27,10:00,0.703,1.009,0.678,1.252,0.883,0.406,0.708,0.675,�k,1.5,��
2019/11/27,10:10,0.706,1.004,0.678,1.252,0.881,0.406,0.708,0.674,�k�k��,3.0,��
2019/11/27,10:20,0.703,1.008,0.678,1.252,0.881,0.404,0.708,0.673,�k�k��,3.8,��
2019/11/27,10:30,0.703,1.005,0.676,1.252,0.883,0.403,0.709,0.674,�k�k��,4.3,��
2019/11/27,10:40,0.704,1.011,0.678,1.250,0.882,0.406,0.709,0.674,�k�k��,4.2,��
2019/11/27,10:50,0.706,1.008,0.677,1.252,0.880,0.407,0.708,0.675,�k��,3.9,��
2019/11/27,11:00,0.704,1.010,0.676,1.251,0.883,0.408,0.707,0.674,�k��,3.0,�L
2019/11/27,11:10,0.705,1.010,0.677,1.250,0.884,0.407,0.705,0.674,�k�k��,3.5,�L
2019/11/27,11:20,0.705,1.010,0.679,1.250,0.882,0.406,0.708,0.674,�k�k��,3.1,��
2019/11/27,11:30,0.703,1.011,0.679,1.251,0.882,0.407,0.709,0.674,�k�k��,2.6,�L
2019/11/27,11:40,0.703,1.008,0.678,1.251,0.882,0.407,0.708,0.674,�k�k��,2.6,�L
2019/11/27,11:50,0.705,1.008,0.676,1.252,0.882,0.407,0.708,0.674,�k�k��,2.9,�L
2019/11/27,12:00,0.703,1.010,0.677,1.251,0.883,0.407,0.707,0.675,�k�k��,1.9,�L
2019/11/27,12:10,0.706,1.010,0.678,1.254,0.883,0.406,0.708,0.676,�k�k��,2.6,�L
2019/11/27,12:20,0.704,1.010,0.678,1.253,0.883,0.407,0.708,0.674,�k,2.6,�L
2019/11/27,12:30,0.705,1.007,0.677,1.251,0.879,0.409,0.708,0.674,�k�k��,1.1,�L
2019/11/27,12:40,0.700,1.001,0.676,1.245,0.875,0.408,0.706,0.673,�k�k��,2.8,�L
2019/11/27,12:50,0.700,1.000,0.675,1.245,0.877,0.408,0.708,0.675,�k�k��,2.3,�L
2019/11/27,13:00,0.701,0.999,0.675,1.246,0.876,0.408,0.705,0.674,�k,1.8,�L
2019/11/27,13:10,0.701,0.997,0.674,1.243,0.878,0.408,0.706,0.673,�k�k��,1.5,�L
2019/11/27,13:20,0.699,0.999,0.674,1.244,0.875,0.410,0.707,0.674,�k��,1.5,�L
2019/11/27,13:30,0.697,0.997,0.669,1.237,0.870,0.408,0.706,0.674,-,CALM,�L
2019/11/27,13:40,0.696,0.989,0.670,1.236,0.869,0.408,0.706,0.674,�k�k��,0.5,�L
2019/11/27,13:50,0.692,0.990,0.672,1.233,0.869,0.408,0.706,0.673,-,CALM,�L
2019/11/27,14:00,0.695,0.991,0.670,1.235,0.868,0.407,0.704,0.673,�k��,0.5,��
2019/11/27,14:10,0.695,0.991,0.670,1.232,0.869,0.408,0.706,0.674,�k��,1.4,��
2019/11/27,14:20,0.695,0.989,0.669,1.233,0.868,0.408,0.706,0.671,�k�k��,1.7,��
2019/11/27,14:30,0.692,0.991,0.670,1.230,0.868,0.406,0.705,0.673,�k�k��,1.7,��
2019/11/27,14:40,0.691,0.988,0.667,1.232,0.868,0.404,0.705,0.672,�k�k��,2.5,��
2019/11/27,14:50,0.693,0.988,0.668,1.230,0.870,0.406,0.705,0.673,�k�k��,2.3,��
2019/11/27,15:00,0.693,0.990,0.666,1.230,0.868,0.403,0.705,0.671,�k�k��,2.4,��
2019/11/27,15:10,0.692,0.991,0.668,1.231,0.866,0.404,0.704,0.672,�k��,2.6,�L
2019/11/27,15:20,0.694,0.989,0.668,1.230,0.866,0.405,0.702,0.672,�k�k��,2.9,�L
2019/11/27,15:30,0.693,0.990,0.668,1.230,0.867,0.405,0.704,0.673,�k�k��,3.3,�L
2019/11/27,15:40,0.693,0.990,0.667,1.231,0.869,0.406,0.705,0.671,�k�k��,3.8,��
2019/11/27,15:50,0.692,0.991,0.666,1.231,0.866,0.404,0.705,0.671,�k�k��,3.1,��
2019/11/27,16:00,0.692,0.991,0.667,1.229,0.869,0.403,0.704,0.673,�k�k��,4.7,��
2019/11/27,16:10,0.690,0.990,0.667,1.232,0.867,0.404,0.706,0.671,�k�k��,4.9,��
2019/11/27,16:20,0.692,0.991,0.668,1.228,0.866,0.403,0.704,0.672,�k�k��,4.1,��
2019/11/27,16:30,0.693,0.990,0.667,1.230,0.868,0.405,0.706,0.671,�k�k��,4.2,��
2019/11/27,16:40,0.691,0.991,0.667,1.231,0.869,0.403,0.706,0.671,�k,4.7,�L
2019/11/27,16:50,0.693,0.990,0.665,1.231,0.868,0.405,0.705,0.671,�k�k��,5.6,��
2019/11/27,17:00,0.692,0.992,0.668,1.231,0.867,0.403,0.705,0.672,�k�k��,6.0,��
2019/11/27,17:10,0.691,0.988,0.668,1.229,0.867,0.405,0.705,0.672,�k�k��,4.4,�L
2019/11/27,17:20,0.694,0.992,0.669,1.232,0.868,0.404,0.705,0.671,�k�k��,3.5,�L
2019/11/27,17:30,0.691,0.992,0.668,1.230,0.869,0.404,0.706,0.672,�k�k��,4.3,�L
2019/11/27,17:40,0.693,0.991,0.667,1.231,0.868,0.406,0.705,0.672,�k�k��,3.9,��
2019/11/27,17:50,0.693,0.991,0.667,1.232,0.868,0.405,0.705,0.670,�k�k��,3.4,��
2019/11/27,18:00,0.692,0.995,0.667,1.230,0.869,0.404,0.706,0.671,�k,3.5,��
2019/11/27,18:10,0.693,0.995,0.668,1.230,0.868,0.406,0.705,0.669,�k�k��,4.3,��
2019/11/27,18:20,0.692,0.992,0.668,1.231,0.867,0.406,0.705,0.671,�k�k��,3.8,��
2019/11/27,18:30,0.693,0.993,0.669,1.231,0.867,0.406,0.705,0.672,�k,3.8,��
2019/11/27,18:40,0.694,0.994,0.667,1.232,0.868,0.405,0.705,0.669,�k,3.5,��
2019/11/27,18:50,0.692,0.995,0.669,1.232,0.868,0.406,0.706,0.672,�k,3.6,��
2019/11/27,19:00,0.691,0.993,0.669,1.231,0.871,0.404,0.705,0.672,�k�k��,3.4,��
2019/11/27,19:10,0.693,0.993,0.669,1.234,0.870,0.406,0.706,0.672,�k�k��,3.1,��
2019/11/27,19:20,0.695,0.995,0.669,1.232,0.867,0.404,0.705,0.671,�k�k��,3.1,��
2019/11/27,19:30,0.693,0.993,0.671,1.231,0.868,0.405,0.706,0.671,�k�k��,2.2,��
2019/11/27,19:40,0.693,0.995,0.670,1.231,0.871,0.405,0.707,0.672,�k,1.9,��
2019/11/27,19:50,0.693,0.994,0.672,1.237,0.869,0.405,0.707,0.673,�k,2.2,��
2019/11/27,20:00,0.695,0.995,0.668,1.233,0.870,0.407,0.707,0.672,�k,2.6,��
2019/11/27,20:10,0.696,0.994,0.670,1.235,0.870,0.404,0.705,0.672,�k�k��,3.5,��
2019/11/27,20:20,0.693,0.994,0.668,1.233,0.869,0.405,0.706,0.671,�k�k��,4.4,��
2019/11/27,20:30,0.694,0.995,0.669,1.233,0.870,0.404,0.707,0.672,�k�k��,4.0,��
2019/11/27,20:40,0.695,0.994,0.670,1.235,0.870,0.406,0.705,0.671,�k�k��,3.8,��
2019/11/27,20:50,0.694,0.993,0.669,1.233,0.871,0.407,0.705,0.672,�k�k��,3.6,��
2019/11/27,21:00,0.695,0.994,0.669,1.233,0.870,0.405,0.707,0.671,�k�k��,3.8,��
2019/11/27,21:10,0.696,0.992,0.671,1.232,0.871,0.407,0.706,0.672,�k�k��,4.0,��
2019/11/27,21:20,0.694,0.995,0.669,1.234,0.870,0.406,0.705,0.669,�k�k��,4.4,��
2019/11/27,21:30,0.693,0.995,0.670,1.235,0.870,0.407,0.708,0.671,�k�k��,4.7,��
2019/11/27,21:40,0.695,0.996,0.668,1.235,0.870,0.405,0.708,0.673,�k�k��,4.0,��
2019/11/27,21:50,0.694,0.995,0.670,1.232,0.870,0.407,0.705,0.671,�k,4.1,��
2019/11/27,22:00,0.694,0.996,0.669,1.234,0.870,0.405,0.706,0.672,�k�k��,5.5,��
2019/11/27,22:10,0.695,0.995,0.671,1.233,0.869,0.406,0.708,0.671,�k�k��,5.0,��
2019/11/27,22:20,0.692,0.995,0.671,1.231,0.869,0.405,0.705,0.672,�k�k��,5.2,��
2019/11/27,22:30,0.696,0.995,0.671,1.233,0.870,0.405,0.706,0.672,�k,5.2,��
2019/11/27,22:40,0.693,0.995,0.669,1.236,0.869,0.407,0.708,0.674,�k,4.4,��
2019/11/27,22:50,0.695,0.995,0.670,1.233,0.869,0.406,0.706,0.671,�k,4.5,��
2019/11/27,23:00,0.693,0.994,0.670,1.234,0.869,0.404,0.707,0.671,�k,4.3,��
2019/11/27,23:10,0.695,0.996,0.670,1.235,0.869,0.405,0.707,0.672,�k�k��,4.5,��
2019/11/27,23:20,0.694,0.997,0.670,1.234,0.870,0.405,0.705,0.671,�k�k��,4.3,��
2019/11/27,23:30,0.694,0.996,0.670,1.231,0.872,0.406,0.706,0.672,�k��,4.9,��
2019/11/27,23:40,0.695,0.994,0.670,1.236,0.871,0.406,0.706,0.672,�k�k��,5.3,�L
2019/11/27,23:50,0.695,0.994,0.671,1.234,0.870,0.406,0.708,0.672,�k��,4.9,�L
